This demonstration page uses our WeatherBlox Daily Observations layout. Learn more.

Left ArrowRight Arrow

Hourly Observations for February 14, 2015

Temp ( °F °C ) Dew Point ( °F °C ) Humidity (%) Winds ( mph kmh ) Pressure ( in mb ) Visibility ( mi km ) Precip ( " mm )
12:53 am 00:53 Cloudy 31 -0.6 11 -11.7 43 43 WSW 14 22 30.04 1017 10 16.0934 N/A
1:53 am 01:53 Cloudy 31 -0.6 12 -11.1 45 45 WSW 9 15 30 1016 10 16.0934 N/A
2:53 am 02:53 Cloudy 31 -0.6 13 -10.6 47 47 WSW 7 11 29.96 1015 10 16.0934 N/A
3:53 am 03:53 Cloudy 31 -0.6 14 -10 49 49 SW 10 17 29.93 1013 10 16.0934 N/A
4:53 am 04:53 Cloudy 31 -0.6 15 -9.4 52 52 SW 9 15 29.88 1012 10 16.0934 N/A
5:53 am 05:53 Cloudy 31 -0.6 15 -9.4 52 52 WSW 12 19 29.87 1012 10 16.0934 N/A
6:53 am 06:53 Cloudy 32 undefined 16 -8.9 52 52 WSW 8 13 29.85 1011 10 16.0934 N/A
7:53 am 07:53 Cloudy 32 undefined 17 -8.3 54 54 WSW 10 17 29.82 1010 10 16.0934 N/A
8:53 am 08:53 Cloudy 32 undefined 19 -7.2 59 59 WSW 12 19 29.79 1009 10 16.0934 N/A
9:53 am 09:53 Cloudy 33 0.6 20 -6.7 58 58 W 16 26 29.81 1009 10 16.0934 N/A
10:53 am 10:53 Mostly Cloudy 34 1.1 20 -6.7 56 56 W 20 31 29.77 1008 10 16.0934 N/A
11:53 am 11:53 Windy with Snow Likely 32 undefined 20 -6.7 61 61 W 22 35 29.79 1009 7 11.26538 N/A
12:53 pm 12:53 Mostly Cloudy with Light Snow 34 1.1 5 -15 29 29 WNW 28 44 29.81 1009 9 14.48406 N/A
1:50 pm 13:50 Windy with Snow Likely 25 -4 16 -9 69 69 NW 33 54 29.94 1014 1.75 2.816345 N/A
1:53 pm 13:53 Windy with Snow Likely 23 -5 15 -9.4 72 72 NW 31 50 29.9 1012 1.25 2.011675 N/A
2:00 pm 14:00 Windy with Snow Likely 24 -4.4 15 -9.4 68 68 NW 23 37 29.94 1014 2 3.21868 N/A
2:09 pm 14:09 Windy with Snow Likely 24 -4.4 14 -10 65 65 WNW 26 43 29.94 1014 6 9.65604 N/A
2:13 pm 14:13 Windy with Snow Likely 23 -5 14 -10 68 68 NW 32 52 29.94 1014 1.5 2.41401 N/A
2:21 pm 14:21 Cloudy with Heavy Snow 20 -6.7 16 -8.9 85 85 NW 18 30 29.97 1015 0.25 0.402335 N/A
2:29 pm 14:29 Cloudy with Snow 19 -7.2 15 -9.4 84 84 NNW 23 37 29.97 1015 0.25 0.402335 N/A
2:45 pm 14:45 Windy with Snow Likely 20 -6.7 13 -10.6 74 74 NW 23 37 29.97 1015 1.5 2.41401 N/A
2:48 pm 14:48 Windy with Snow Likely 19 -7 12 -11 73 73 NW 26 43 30 1016 2 3.21868 N/A
2:53 pm 14:53 Windy with Snow Likely 21 -6.1 8 -13.3 57 57 NW 32 52 29.96 1014 7 11.26538 N/A
3:03 pm 15:03 Mostly Cloudy with Light Snow 21 -6.1 8 -13.3 57 57 NW 30 48 30 1016 9 14.48406 N/A
3:53 pm 15:53 Mostly Cloudy with Light Snow 20 -6.7 9 -12.8 62 62 NNW 20 31 30.02 1017 3 4.82802 N/A
3:58 pm 15:58 Mostly Cloudy with Light Snow 19 -7.2 12 -11.1 74 74 NNW 20 31 30.06 1018 1.75 2.816345 N/A
4:03 pm 16:03 Mostly Cloudy with Light Snow 18 -7.8 8 -13.3 65 65 NNW 29 46 30.06 1018 3 4.82802 N/A
4:23 pm 16:23 Windy with Snow Likely 19 -7.2 9 -12.8 65 65 NNW 22 35 30.09 1019 1.5 2.41401 N/A
4:28 pm 16:28 Cloudy with Snow 17 -8.3 11 -11.7 77 77 NNW 21 33 30.09 1019 0.5 0.80467 N/A
4:36 pm 16:36 Windy with Snow Likely 16 -8.9 7 -13.9 67 67 NW 26 43 30.12 1020 2 3.21868 N/A
4:43 pm 16:43 Windy with Snow Likely 16 -8.9 2 -16.7 54 54 NW 25 41 30.12 1020 9 14.48406 N/A
4:53 pm 16:53 Windy with Snow Likely 16 -8.9 1 -17.2 51 51 NW 22 35 30.09 1019 8 12.87472 N/A
5:53 pm 17:53 Partly Cloudy 15 -9.4 1 -17.2 53 53 NNW 15 24 30.16 1022 10 16.0934 N/A
6:53 pm 18:53 Mostly Cloudy with Light Snow 13 -10.6 3 -16.1 64 64 NW 24 39 30.23 1024 8 12.87472 N/A
7:53 pm 19:53 Mostly Clear 12 -11.1 -1 -18.3 56 56 NNW 17 28 30.27 1025 10 16.0934 N/A
8:53 pm 20:53 Mostly Clear 12 -11.1 -1 -18.3 56 56 NW 16 26 30.32 1027 10 16.0934 N/A
9:53 pm 21:53 Mostly Clear 11 -11.7 N/A 61 61 NW 16 26 30.35 1028 10 16.0934 N/A
10:53 pm 22:53 Cloudy with Light Snow 11 -11.7 4 -15.6 73 73 NW 13 20 30.37 1028 5 8.0467 N/A
11:53 pm 23:53 Partly Cloudy 10 -12.2 2 -16.7 69 69 WNW 14 22 30.38 1029 10 16.0934 N/A

Powered by AerisWeather